TimeMST,TemperatureF,Dew PointF,Humidity,Sea Level PressureIn,VisibilityMPH,Wind Direction,Wind SpeedMPH,Gust SpeedMPH,PrecipitationIn,Events,Conditions,WindDirDegrees,DateUTC
12:53 AM,15.1,8.1,74,30.32,10.0,NE,8.1,-,N/A,,Clear,50,2014-01-13 07:53:00
1:53 AM,12.9,7.0,77,30.35,10.0,ENE,6.9,-,N/A,,Clear,60,2014-01-13 08:53:00
2:53 AM,12.9,7.0,77,30.36,10.0,ENE,10.4,-,N/A,,Clear,70,2014-01-13 09:53:00
3:53 AM,12.0,7.0,80,30.39,10.0,ENE,8.1,-,N/A,,Clear,60,2014-01-13 10:53:00
4:53 AM,12.9,8.1,81,30.41,10.0,ENE,9.2,-,N/A,,Clear,60,2014-01-13 11:53:00
5:53 AM,12.9,7.0,77,30.41,10.0,Calm,Calm,-,N/A,,Clear,0,2014-01-13 12:53:00
6:53 AM,14.0,8.1,77,30.43,10.0,Calm,Calm,-,N/A,,Clear,0,2014-01-13 13:53:00
7:53 AM,10.9,6.1,81,30.51,10.0,East,5.8,-,N/A,,Clear,80,2014-01-13 14:53:00
8:53 AM,19.9,10.9,68,30.49,10.0,ESE,4.6,-,N/A,,Clear,120,2014-01-13 15:53:00
9:53 AM,30.9,14.0,50,30.44,10.0,East,6.9,-,N/A,,Clear,100,2014-01-13 16:53:00
10:53 AM,39.0,14.0,36,30.41,10.0,NNW,13.8,-,N/A,,Clear,340,2014-01-13 17:53:00
11:53 AM,42.1,15.1,34,30.35,10.0,NNW,16.1,20.7,N/A,,Clear,330,2014-01-13 18:53:00
12:53 PM,43.0,16.0,34,30.34,10.0,NW,12.7,-,N/A,,Clear,320,2014-01-13 19:53:00
1:53 PM,44.1,16.0,32,30.32,10.0,North,15.0,21.9,N/A,,Clear,350,2014-01-13 20:53:00
2:53 PM,43.0,14.0,31,30.32,10.0,WNW,11.5,-,N/A,,Clear,290,2014-01-13 21:53:00
3:53 PM,44.1,14.0,30,30.33,10.0,Variable,5.8,-,N/A,,Clear,0,2014-01-13 22:53:00
4:53 PM,41.0,17.1,38,30.35,10.0,North,9.2,-,N/A,,Clear,350,2014-01-13 23:53:00
5:53 PM,36.0,17.1,46,30.37,10.0,NNW,8.1,-,N/A,,Clear,340,2014-01-14 00:53:00
6:53 PM,30.9,17.1,57,30.40,10.0,North,4.6,-,N/A,,Clear,10,2014-01-14 01:53:00
7:53 PM,24.1,14.0,65,30.46,10.0,NNE,6.9,-,N/A,,Clear,30,2014-01-14 02:53:00
8:53 PM,23.0,15.1,72,30.43,10.0,ENE,10.4,-,N/A,,Clear,60,2014-01-14 03:53:00
9:53 PM,19.0,12.0,74,30.40,10.0,ENE,8.1,-,N/A,,Clear,60,2014-01-14 04:53:00
10:53 PM,18.0,12.0,78,30.38,10.0,ENE,10.4,-,N/A,,Clear,70,2014-01-14 05:53:00
11:53 PM,16.0,10.9,81,30.38,10.0,NE,8.1,-,N/A,,Clear,50,2014-01-14 06:53:00